TimeEDT,TemperatureF,Dew PointF,Humidity,Sea Level PressureIn,VisibilityMPH,Wind Direction,Wind SpeedMPH,Gust SpeedMPH,PrecipitationIn,Events,Conditions,WindDirDegrees,DateUTC
12:00 AM,50.9,49.5,95,30.06,-9999.0,East,1.2,-,N/A,,Unknown,80,2012-10-25 04:00:00
1:00 AM,50.9,49.5,95,30.05,-9999.0,East,1.2,-,N/A,,Unknown,100,2012-10-25 05:00:00
2:00 AM,51,49,92,30.04,,NNE,1.2,,,,,20,2012-10-25 06:00:00
2:00 AM,50.7,49.5,95,30.04,-9999.0,NNE,1.2,-,N/A,,Unknown,20,2012-10-25 06:00:00
4:00 AM,50.4,49.1,95,30.04,-9999.0,NE,1.2,-,N/A,,Unknown,40,2012-10-25 08:00:00
5:00 AM,49.5,48.2,95,30.04,-9999.0,NNE,1.2,-,N/A,,Unknown,20,2012-10-25 09:00:00
6:00 AM,48.7,47.5,95,30.04,-9999.0,Calm,Calm,-,N/A,,Unknown,0,2012-10-25 10:00:00
7:00 AM,48.2,46.9,95,30.05,-9999.0,ESE,1.2,-,N/A,,Unknown,110,2012-10-25 11:00:00
8:00 AM,47,46,94,30.04,,Calm,Calm,,,,,,2012-10-25 12:00:00
8:00 AM,47.1,45.9,95,30.04,-9999.0,Calm,Calm,-,N/A,,Unknown,0,2012-10-25 12:00:00
9:00 AM,50.9,49.8,96,30.04,-9999.0,Calm,Calm,-,N/A,,Unknown,0,2012-10-25 13:00:00
10:00 AM,59.2,57.9,96,30.05,-9999.0,South,4.6,-,N/A,,Unknown,170,2012-10-25 14:00:00
11:00 AM,65.1,58.3,78,30.04,-9999.0,South,6.9,-,N/A,,Unknown,190,2012-10-25 15:00:00
12:00 PM,71.4,55.4,57,30.02,-9999.0,South,8.1,-,N/A,,Unknown,180,2012-10-25 16:00:00
1:00 PM,74.1,49.8,42,30.01,-9999.0,SSW,9.2,-,N/A,,Unknown,210,2012-10-25 17:00:00
2:00 PM,75,48,27,29.99,,SSW,9.2,,,,,200,2012-10-25 18:00:00
2:00 PM,75.2,48.0,38,29.99,-9999.0,SSW,9.2,-,N/A,,Unknown,200,2012-10-25 18:00:00
3:00 PM,75.9,47.1,36,29.97,-9999.0,SSW,10.4,18.4,N/A,,Unknown,210,2012-10-25 19:00:00
4:00 PM,76.1,47.3,36,29.96,-9999.0,South,10.4,-,N/A,,Unknown,190,2012-10-25 20:00:00
5:00 PM,76.1,47.8,37,29.94,-9999.0,South,6.9,-,N/A,,Unknown,170,2012-10-25 21:00:00
6:00 PM,73.0,48.9,42,29.94,-9999.0,SSE,5.8,-,N/A,,Unknown,160,2012-10-25 22:00:00
7:00 PM,69.1,49.1,49,29.94,-9999.0,SSE,4.6,-,N/A,,Unknown,150,2012-10-25 23:00:00
8:00 PM,65,50,47,29.93,,SSE,4.6,,,,,160,2012-10-26 00:00:00
8:00 PM,64.8,49.6,58,29.93,-9999.0,SSE,4.6,-,N/A,,Unknown,160,2012-10-26 00:00:00
9:00 PM,64.2,49.5,59,29.92,-9999.0,SSE,5.8,-,N/A,,Unknown,160,2012-10-26 01:00:00
10:00 PM,63.0,50.2,63,29.91,-9999.0,South,5.8,-,N/A,,Unknown,170,2012-10-26 02:00:00
11:00 PM,60.8,48.9,65,29.91,-9999.0,South,3.5,-,N/A,,Unknown,180,2012-10-26 03:00:00